GFSGL_sfc_rhum_096.txt.gz
RH
76 75 78 84 80 76 76 76 76 74 75 76 74 73 74 76 79 86 84 78 82 84 84 84 88 89 85 86 94 93 96 98 98 95 95 96 96 91 87 91 94 93 92
81 82 84 96 87 90 82 81 77 78 78 78 75 74 74 76 80 80 78 68 75 80 79 80 83 80 91 93 94 93 92 94 95 95 94 98 95 92 91 95 98 98 94
96 94 98 99 99 96 98 84 81 80 80 73 75 75 72 72 77 76 75 72 73 75 77 80 80 80 88 92 93 93 95 96 95 97 96 96 95 94 98 98 97 99 99
95 94 95 97 95 93 97 97 88 83 81 80 81 75 71 70 71 76 75 76 79 74 80 81 79 79 84 86 90 92 93 95 96 97 95 96 95 95 94 98 100 100 100
95 96 95 95 94 91 86 88 88 86 83 79 80 78 70 66 52 76 74 75 78 79 79 76 76 77 76 80 87 92 92 96 95 87 93 96 96 95 94 92 96 99 99
90 94 95 93 88 82 76 80 87 86 84 81 80 79 78 55 63 80 74 71 78 79 84 80 77 80 81 80 81 82 85 92 92 93 94 94 94 91 87 88 98 97 100
89 84 89 91 91 92 91 90 92 90 88 86 84 82 83 78 82 83 80 67 72 80 79 79 71 52 77 74 88 88 87 86 91 91 92 90 85 88 89 96 98 97 98
83 85 86 89 89 85 88 90 92 92 90 91 86 90 87 81 86 90 82 76 74 76 76 80 78 75 76 78 80 80 79 79 84 71 83 86 86 88 91 91 90 94 96
78 79 78 81 84 92 94 94 96 94 95 90 88 86 86 85 98 93 93 80 76 77 72 74 77 75 80 87 82 86 83 83 83 90 95 90 91 91 93 87 97 98 100
88 90 82 82 84 85 87 93 91 90 91 93 88 86 87 88 98 100 98 75 78 72 78 78 84 76 84 91 81 87 89 83 84 86 88 93 94 95 92 85 89 94 97
80 85 89 88 88 87 88 93 95 96 97 94 91 90 89 89 88 100 100 86 73 70 65 66 66 84 87 93 89 86 86 88 88 91 82 83 84 85 86 89 86 82 87
76 78 80 89 82 79 88 88 86 88 90 91 94 93 86 91 98 99 100 100 91 81 73 71 74 91 89 92 93 87 96 96 88 90 94 80 77 78 79 86 93 85 84
74 78 79 85 86 85 86 87 79 83 89 91 82 80 80 71 89 99 100 99 99 90 76 79 93 91 97 98 97 91 99 88 87 96 92 89 90 86 87 90 92 92 92
75 76 75 77 84 86 75 73 71 70 74 76 77 76 72 72 78 78 77 85 97 95 92 85 82 86 89 86 91 92 87 81 92 93 82 91 94 94 94 95 96 97 98
70 68 66 56 72 77 77 78 80 79 81 77 74 77 80 78 82 94 92 82 82 97 99 88 89 80 76 82 88 92 94 92 90 88 92 94 94 95 95 95 96 97 95
66 55 54 50 44 49 63 68 88 85 98 100 100 94 78 90 96 100 100 100 100 100 93 87 94 94 93 92 94 95 94 89 93 97 93 95 97 92 95 94 96 96 96
70 64 53 55 48 53 51 58 69 81 98 100 100 100 100 99 100 100 100 100 100 100 98 95 92 94 94 94 95 95 96 96 97 98 97 97 93 95 98 94 96 95 94
64 68 54 49 45 43 43 52 47 64 68 76 97 96 99 100 100 100 100 99 97 99 97 96 97 97 95 96 96 98 97 99 98 98 98 96 93 93 92 95 95 94 96
51 45 44 42 43 47 46 48 48 64 69 66 69 90 90 100 100 100 100 96 91 88 96 98 97 97 97 95 95 99 97 98 98 98 98 99 98 96 98 98 99 97 98
50 58 60 47 40 41 40 52 58 66 78 77 62 70 70 81 95 98 99 99 99 99 98 98 97 98 97 98 99 99 99 99 99 99 99 99 98 96 97 96 96 95 97
40 39 57 40 38 47 46 51 72 67 79 78 87 84 100 89 97 98 99 99 99 99 99 99 100 100 99 99 99 98 98 99 98 98 98 98 98 97 92 88 87 83 82
42 39 40 40 45 44 50 52 54 66 62 71 84 83 100 78 92 98 97 98 98 99 99 99 99 99 99 99 99 99 98 98 99 98 98 98 98 96 95 87 79 78 72
37 42 43 43 48 61 50 54 65 64 75 71 70 70 75 81 95 99 98 98 98 97 99 98 99 99 98 98 98 98 98 99 98 96 95 94 96 95 94 90 82 77 71
36 40 34 53 52 51 51 51 63 86 74 77 70 82 89 89 95 98 98 98 99 98 97 98 98 97 98 98 98 98 98 98 98 96 91 89 88 82 73 74 66 60 57
36 34 29 36 51 46 37 51 70 74 71 78 73 78 81 87 95 96 97 97 94 85 79 82 92 96 96 96 95 90 97 100 95 92 70 62 60 61 57 54 56 58 57
32 31 32 35 32 36 34 54 53 69 80 83 78 76 79 86 90 96 98 95 84 70 64 68 70 78 77 69 68 81 88 85 70 73 64 61 60 60 57 54 53 54 51

GFSGL_sfc_rhum_102.txt.gz
RH
92 90 80 95 97 96 97 96 96 95 88 90 93 94 94 93 95 97 97 96 97 97 98 98 97 97 99 99 99 99 99 99 98 96 98 96 98 98 98 98 97 98 98
83 98 99 98 97 97 98 98 99 98 96 98 96 95 93 88 94 96 95 88 95 97 96 97 97 96 97 98 99 99 99 98 98 98 97 97 98 97 97 99 100 99 98
95 96 97 98 98 98 99 99 98 97 97 96 95 96 91 92 92 92 89 91 94 94 91 95 95 96 98 98 98 99 99 99 98 99 98 98 99 99 100 99 99 99 99
95 98 96 94 95 96 98 98 96 95 94 97 96 95 94 94 90 87 87 90 93 93 93 94 94 95 95 96 98 98 99 99 99 99 100 99 99 99 99 99 100 100 100
98 97 97 95 96 96 97 96 91 84 75 83 84 91 94 95 92 92 87 89 92 94 94 90 90 89 89 92 96 97 98 98 99 99 99 99 100 99 99 99 99 100 99
97 97 97 97 98 98 98 98 95 90 89 88 94 96 94 89 92 94 87 86 89 90 94 95 92 90 90 91 91 89 91 96 97 99 99 99 98 99 99 99 99 100 100
97 97 98 98 98 98 97 95 92 90 93 93 94 97 97 95 92 95 94 92 89 88 89 90 89 76 89 88 92 92 92 91 90 93 97 97 96 98 98 100 99 99 98
99 98 97 98 96 96 96 95 93 92 93 96 98 97 97 97 100 100 99 97 96 94 87 90 90 88 91 90 92 94 95 96 95 90 95 94 94 96 94 96 96 96 97
98 98 98 97 97 97 96 95 92 94 95 94 94 94 95 95 100 100 100 98 97 97 97 97 96 95 92 95 95 96 95 93 94 97 95 94 93 96 98 98 99 99 100
96 91 94 96 98 97 96 95 95 94 94 98 98 98 99 96 100 100 100 98 98 99 96 95 98 95 97 98 95 96 96 91 96 96 97 96 97 96 97 89 96 99 98
94 93 90 93 95 96 97 98 96 95 94 94 94 97 97 97 96 100 100 98 98 98 98 97 98 100 100 100 100 95 87 91 96 96 98 98 98 100 99 98 94 90 98
92 94 93 92 94 94 95 96 95 97 96 96 95 96 97 96 100 100 100 100 100 100 98 98 98 99 100 100 100 99 100 100 98 99 99 99 99 99 98 99 98 94 88
90 93 92 93 92 94 94 93 87 95 96 98 98 98 98 99 98 100 100 100 100 99 99 100 100 100 100 100 100 100 100 99 99 99 98 97 94 92 97 98 99 97 96
92 91 88 93 94 94 96 95 92 86 90 91 96 96 98 98 98 98 97 97 96 99 96 98 99 100 100 96 99 100 99 99 98 98 98 97 98 99 99 98 98 99 99
91 91 90 93 88 85 93 97 94 92 94 94 95 96 95 96 97 100 99 99 99 99 100 98 99 99 99 100 99 98 99 99 99 99 99 99 99 99 99 99 98 98 98
93 93 94 93 89 87 85 79 97 94 100 100 100 97 98 99 100 100 100 100 100 100 99 98 98 98 98 98 99 98 98 98 98 99 99 98 99 98 99 98 98 98 98
91 90 90 86 88 86 77 75 92 93 100 100 100 100 100 100 100 100 100 100 100 100 99 97 97 96 97 97 98 99 98 98 97 98 98 98 96 98 99 98 98 98 99
90 88 90 89 87 85 78 75 81 91 93 93 100 100 100 100 100 100 100 100 98 100 99 97 97 98 95 97 98 98 98 98 99 98 98 97 97 96 98 98 98 98 98
86 80 80 82 87 84 84 86 82 79 93 94 96 99 99 100 100 100 100 99 98 98 98 99 99 99 98 97 97 98 97 98 97 98 98 98 98 97 97 96 96 99 99
78 79 78 83 81 82 75 90 95 94 93 95 97 96 96 98 97 97 96 98 98 98 98 98 98 98 98 99 98 98 99 99 99 99 98 98 98 98 97 96 96 97 95
80 78 78 79 78 81 87 88 91 91 93 95 96 97 100 97 94 98 99 99 98 98 99 99 99 99 99 99 99 99 99 98 98 98 99 99 98 99 98 98 98 96 97
82 75 71 76 78 76 89 92 93 94 95 96 96 97 100 99 95 96 98 99 99 98 99 99 99 99 99 99 99 99 98 98 98 98 99 98 98 98 97 97 97 97 98
79 75 66 65 70 78 85 92 94 94 96 96 96 93 97 96 96 98 99 99 99 99 99 99 99 99 98 99 99 99 99 100 100 99 99 99 99 99 98 98 98 98 97
59 58 58 66 68 78 79 86 95 98 95 96 96 97 97 97 94 97 98 99 99 98 98 98 98 98 98 98 99 99 99 99 99 99 98 98 99 99 99 99 99 98 98
59 59 60 66 64 66 78 77 94 95 96 97 97 98 98 98 98 98 98 98 98 97 92 94 98 98 98 97 98 99 100 100 99 100 98 98 99 99 99 99 98 98 98
63 65 62 62 64 73 71 70 91 96 96 97 97 97 98 98 98 98 98 98 97 85 83 91 93 92 96 90 92 100 100 100 100 100 99 99 99 99 99 99 97 98 96

GFSGL_sfc_rhum_105.txt.gz
RH
83 95 96 99 98 98 97 96 92 88 89 90 94 95 96 97 97 98 97 98 98 98 98 98 98 98 99 100 100 100 100 99 99 97 98 95 94 97 98 98 97 99 98
95 94 98 98 97 98 95 95 98 97 96 93 96 97 96 96 97 96 96 94 97 98 98 99 98 98 98 98 100 99 99 99 99 98 97 98 98 97 98 99 100 99 98
96 96 99 99 98 99 97 98 98 98 98 98 98 98 98 97 97 95 93 96 97 96 96 97 97 98 98 99 99 100 99 99 99 99 98 98 99 99 99 99 99 99 98
97 96 98 98 91 92 97 97 98 97 98 98 98 98 98 97 96 96 93 97 96 95 95 96 95 96 96 98 98 99 99 99 99 99 99 99 99 99 99 99 100 100 100
91 95 94 94 97 96 95 94 97 98 94 92 95 97 98 97 95 96 94 94 95 96 96 96 96 93 91 94 96 98 99 99 99 99 99 100 100 100 99 99 99 100 99
97 99 99 98 97 96 97 97 99 97 93 89 90 90 94 95 97 97 96 96 95 93 95 96 95 93 92 93 93 93 95 98 98 100 99 99 98 96 98 98 99 100 100
98 98 98 99 98 98 94 96 97 97 97 95 94 91 94 95 96 97 98 98 96 96 94 94 92 82 93 93 95 94 94 92 88 94 97 98 97 98 99 100 99 99 99
98 98 98 98 97 98 99 99 98 97 96 93 94 94 90 89 100 100 99 98 99 97 96 96 94 89 94 93 95 95 96 97 97 96 92 90 95 96 96 98 97 97 97
96 98 99 98 98 98 98 98 97 97 96 95 94 95 95 95 100 100 100 100 99 98 98 98 97 97 94 96 95 96 95 96 99 97 95 98 96 97 97 99 100 99 100
94 92 96 97 98 99 98 96 95 95 95 96 98 97 98 96 100 100 100 99 98 99 99 98 100 98 100 100 98 98 96 94 96 97 97 99 99 98 99 94 99 98 98
96 95 94 96 97 96 97 97 97 96 94 95 95 97 97 98 98 100 100 98 98 98 98 99 98 100 100 100 100 97 92 92 96 97 97 98 98 97 99 99 95 89 98
92 90 94 95 95 95 96 96 96 97 97 97 97 99 99 99 100 100 100 100 100 100 99 99 98 100 100 100 100 100 100 100 99 99 99 99 98 99 97 99 98 97 94
90 92 92 95 96 96 95 94 97 96 97 98 98 99 100 99 99 100 100 100 100 100 100 100 100 100 100 100 100 100 100 100 100 100 99 98 95 94 97 99 99 98 97
92 93 93 91 91 91 97 97 96 96 96 86 88 94 98 99 98 98 98 98 97 96 94 98 97 98 100 100 100 100 99 99 99 99 99 98 99 100 99 98 99 99 99
92 93 93 94 94 91 88 91 95 93 95 94 92 91 93 96 95 99 100 99 99 99 99 99 99 98 98 99 98 99 99 100 99 99 99 99 99 99 99 99 99 99 99
91 93 96 96 95 93 84 76 97 99 98 100 100 98 98 99 99 100 100 100 100 100 98 98 98 98 97 97 98 98 99 99 99 99 99 98 98 99 99 99 98 98 98
92 92 91 90 91 94 89 80 81 93 100 100 100 100 100 100 100 100 100 100 100 100 99 98 98 98 97 97 97 97 98 99 97 99 98 98 98 98 99 99 98 98 98
90 86 89 92 94 89 88 90 86 85 84 92 100 100 100 100 100 100 100 100 98 100 99 98 98 98 97 98 98 98 97 96 99 99 99 98 98 97 98 97 96 97 96
85 81 83 90 92 92 94 96 94 88 89 95 97 100 100 100 100 100 100 97 98 98 98 98 98 98 99 99 98 98 98 97 98 98 98 98 97 98 98 96 96 99 98
89 83 82 86 88 88 92 95 95 95 94 93 93 95 97 98 97 97 98 98 98 99 99 99 99 99 99 99 98 99 99 99 99 99 98 98 98 98 96 97 96 96 97
94 85 80 76 80 86 92 95 96 95 95 97 96 97 100 96 96 97 98 98 98 98 98 99 98 97 99 99 99 99 98 98 98 98 98 98 98 99 98 97 97 96 96
94 91 80 73 71 76 80 94 95 95 96 96 97 97 100 100 99 97 97 97 98 99 99 99 99 99 99 99 99 99 99 98 98 98 98 98 98 98 98 98 98 98 97
90 74 68 63 65 74 78 87 96 96 96 97 97 98 99 98 99 96 98 97 98 98 99 99 99 99 99 99 99 99 99 99 99 99 99 99 99 99 98 98 98 99 98
68 63 63 66 69 70 77 80 90 98 98 96 97 98 98 98 98 97 97 98 99 99 99 98 98 98 98 98 99 99 99 99 99 99 99 99 99 99 99 99 99 97 98
71 70 71 72 71 70 70 78 89 92 95 97 97 98 98 98 98 98 98 98 98 96 96 96 96 97 97 98 97 98 100 100 99 100 99 98 98 98 99 99 99 99 98
69 70 73 76 74 72 73 75 80 87 93 94 95 97 97 98 98 98 98 98 98 95 96 90 89 89 93 95 90 98 100 100 100 100 99 99 99 99 99 99 98 99 99

GFSGL_sfc_rhum_111.txt.gz
RH
77 78 80 83 88 91 95 86 84 76 79 80 77 75 74 74 75 78 83 78 80 86 80 85 83 85 95 73 68 79 84 86 97 73 68 66 77 73 70 76 80 73 66
77 79 81 78 79 82 87 88 88 83 80 76 80 78 76 74 76 77 77 71 76 79 77 82 83 72 81 84 83 88 86 90 93 89 79 70 76 75 84 90 85 85 84
89 83 84 85 86 84 84 89 88 86 84 82 84 85 81 79 77 76 80 76 77 77 76 79 80 77 82 79 81 80 86 88 90 87 73 71 67 68 77 96 96 96 89
91 85 85 84 84 85 82 82 83 82 82 82 85 88 87 84 77 77 80 78 79 76 80 77 77 77 79 80 78 79 80 86 90 90 91 89 78 70 74 84 95 90 85
97 84 83 80 86 81 81 83 84 88 94 89 91 91 92 91 86 86 80 81 84 86 84 80 76 77 83 78 64 75 79 88 89 97 94 89 82 85 88 80 78 76 86
98 85 83 87 90 88 82 83 86 87 86 87 92 88 92 91 100 100 95 82 82 85 87 87 74 87 87 93 92 88 79 84 90 86 90 91 87 79 70 78 78 92 88
98 90 87 91 92 88 83 85 83 83 89 93 92 91 88 87 100 100 100 94 98 97 95 95 89 69 84 71 93 94 93 92 86 83 82 77 76 75 78 81 84 78 70
97 98 98 98 94 94 95 92 96 96 94 95 90 87 94 97 99 100 99 91 96 94 95 94 93 87 81 77 73 74 74 75 78 67 72 75 76 81 81 80 78 80 80
96 97 94 92 92 90 88 89 93 98 98 98 96 90 90 94 100 96 94 88 98 96 96 96 95 90 94 100 83 80 75 70 78 92 89 90 94 94 82 69 68 78 94
84 84 85 84 92 91 90 87 89 92 91 87 86 89 96 94 100 99 96 92 98 99 98 96 100 87 99 100 94 90 82 68 78 75 87 92 94 84 97 77 67 69 64
78 76 75 78 84 87 88 87 88 94 93 94 92 94 95 95 96 100 100 94 98 99 99 99 97 100 100 100 100 96 94 96 85 86 89 90 67 66 64 71 71 59 58
71 70 72 77 72 72 84 86 87 85 86 90 96 97 98 98 100 100 100 100 100 97 99 99 100 100 100 100 100 100 100 100 97 94 98 94 92 72 55 60 73 70 60
72 75 75 72 70 77 78 79 68 76 72 91 97 97 94 90 92 100 100 100 99 97 95 99 99 100 100 100 100 100 100 100 100 99 98 94 85 61 81 87 74 83 80
72 74 74 72 71 70 58 62 60 58 60 61 65 74 74 65 73 83 86 88 92 86 88 90 93 94 99 96 95 96 98 99 99 99 98 89 93 96 90 91 98 99 99
68 66 64 55 62 60 62 62 60 71 66 58 60 59 60 62 67 86 79 63 64 81 83 77 77 80 75 73 74 79 82 88 97 98 98 98 97 98 99 97 99 98 99
62 58 59 53 50 51 52 58 98 96 100 100 100 81 69 91 100 100 100 100 100 100 67 65 71 74 75 77 80 80 81 85 86 91 96 97 98 98 97 98 99 98 99
67 66 58 60 56 60 60 55 53 76 100 100 100 100 100 99 100 100 100 100 100 94 58 60 61 60 64 70 73 80 82 77 89 94 96 94 93 94 98 98 98 98 98
64 83 55 54 53 52 57 58 51 53 50 50 91 93 99 100 100 100 100 96 66 72 62 61 60 64 74 81 83 86 90 91 95 94 94 93 93 94 94 95 95 95 96
55 50 52 50 49 60 53 52 48 49 47 49 55 84 92 100 100 100 100 68 63 59 60 69 70 82 85 86 86 94 97 97 94 96 96 97 96 96 94 92 93 99 97
57 81 67 46 42 43 42 41 42 48 52 45 43 47 60 79 67 64 69 72 75 72 67 73 75 85 89 79 90 97 98 97 98 98 96 97 96 97 98 96 96 95 95
49 50 71 38 35 36 37 40 40 43 44 41 49 53 100 64 56 57 64 63 62 63 68 74 71 83 87 89 90 88 89 93 87 84 94 97 98 98 95 96 96 96 96
46 47 42 38 36 34 34 33 34 37 40 44 41 48 100 65 56 54 57 59 60 64 64 76 84 82 83 77 76 84 83 86 86 90 95 91 90 91 96 96 95 95 92
40 40 37 37 38 46 35 33 31 33 36 38 38 39 45 54 54 54 53 52 56 60 61 76 85 84 72 67 64 67 66 76 86 90 92 94 94 90 88 94 94 96 97
41 43 42 41 40 38 39 43 42 49 45 43 40 38 40 42 42 45 51 50 56 59 61 62 73 74 70 68 69 68 67 78 87 81 84 86 73 81 91 95 94 89 92
46 48 46 46 46 49 49 48 48 45 43 43 43 43 41 43 45 48 50 56 57 56 55 55 56 71 75 74 83 76 85 100 95 96 73 72 72 74 80 97 97 94 83
48 52 51 52 53 55 54 53 52 52 51 53 54 54 52 51 50 51 52 54 56 50 50 49 53 59 64 63 66 85 98 99 91 100 75 60 69 65 75 86 94 96 95

GFSGL_sfc_rhum_114.txt.gz
RH
61 62 70 78 91 90 91 88 82 77 83 81 69 66 65 66 66 72 71 66 65 65 64 71 69 70 67 82 92 78 84 89 87 50 42 52 68 73 61 57 58 61 81
60 67 70 68 71 77 85 84 85 84 86 86 86 79 72 64 67 68 66 58 60 63 63 68 65 56 78 83 88 86 89 78 62 70 58 52 66 66 67 71 63 57 73
66 69 71 78 76 77 76 78 81 82 81 75 71 76 75 76 66 70 65 61 58 60 61 64 67 70 75 77 76 86 74 77 70 65 56 49 50 51 63 71 77 83 91
69 70 73 73 82 83 80 79 81 76 79 79 74 82 80 73 77 68 65 63 63 64 62 62 60 63 69 73 72 79 81 65 67 70 55 59 70 60 60 54 66 66 62
71 71 80 76 80 72 71 68 66 66 63 65 67 77 77 75 70 72 71 66 66 65 63 62 60 69 77 71 58 69 73 70 74 76 62 68 78 74 68 53 58 80 70
77 80 79 73 81 74 71 69 69 72 69 69 71 66 68 62 84 96 93 82 81 78 75 65 62 86 87 90 89 88 77 81 84 66 60 63 75 68 63 57 58 63 69
93 92 77 78 77 80 77 78 70 71 73 78 75 72 71 73 100 100 100 80 78 73 76 67 62 55 86 68 96 95 92 91 89 82 76 68 68 66 71 77 73 64 57
80 89 89 88 87 86 82 82 78 77 77 81 83 81 82 74 99 100 100 95 89 83 85 74 74 78 78 90 90 90 79 73 74 61 68 71 71 70 72 69 80 89 69
88 94 95 88 94 89 86 88 86 88 90 95 90 89 93 76 100 100 100 95 86 83 78 77 82 95 99 100 97 90 89 80 81 91 90 91 99 99 84 70 73 90 70
95 92 90 86 86 80 82 78 78 77 82 82 82 91 90 88 100 100 97 90 93 95 83 93 98 95 100 100 99 94 93 84 73 67 71 84 90 80 97 78 68 78 65
84 80 80 77 80 80 81 81 81 81 84 89 95 96 96 98 93 100 100 77 88 92 88 99 99 100 100 100 100 96 93 91 88 68 57 71 66 82 78 71 66 73 75
62 63 70 71 64 68 78 84 81 83 88 88 91 93 96 97 100 100 100 100 100 84 94 90 91 100 100 100 100 100 100 100 79 60 76 66 92 89 94 95 89 78 82
64 68 67 66 64 67 70 67 51 64 68 74 85 90 82 73 80 99 100 100 100 99 99 99 96 100 100 96 100 100 100 98 98 98 84 74 94 96 89 94 93 89 83
65 65 64 62 64 64 48 45 42 43 44 45 47 52 54 55 56 54 58 64 91 74 90 76 95 89 96 87 90 95 96 97 96 88 85 77 83 92 88 88 83 79 94
58 56 52 43 50 49 54 56 50 68 68 45 44 43 46 47 60 84 73 50 50 71 74 58 61 62 55 59 55 56 57 62 77 78 87 93 94 84 72 72 78 76 88
50 46 48 40 39 39 38 51 96 94 99 100 100 76 60 90 100 100 100 100 100 100 56 48 50 50 51 52 61 62 53 64 60 66 70 79 90 92 94 94 97 99 98
59 57 42 44 39 42 43 40 45 72 99 100 100 100 100 96 100 100 100 100 100 91 44 44 48 48 48 48 48 52 61 66 77 67 76 76 71 87 95 91 91 96 98
56 82 44 40 37 36 39 38 34 38 39 45 90 89 98 100 100 100 100 94 54 67 43 46 47 48 54 57 61 61 68 73 83 80 78 79 82 74 89 93 86 88 93
44 42 41 38 36 41 33 32 31 35 35 35 47 83 87 100 100 99 100 65 48 42 39 42 50 56 62 64 64 66 67 62 68 80 84 89 85 91 87 78 90 99 96
46 73 54 35 32 33 31 30 30 33 36 33 31 32 49 73 56 52 64 51 56 50 44 46 49 68 73 71 70 64 61 64 63 67 67 65 68 80 88 88 85 91 93
34 37 58 30 29 29 30 32 31 31 30 30 31 38 99 37 34 34 36 39 41 42 43 45 43 47 66 69 59 56 53 57 52 49 49 56 66 68 68 68 73 89 93
32 33 32 31 32 32 32 31 28 26 27 28 28 31 100 41 32 32 32 34 36 40 41 46 46 45 53 62 57 51 52 52 51 53 52 54 61 57 54 52 57 64 70
32 31 31 31 31 43 33 31 32 33 30 26 26 26 26 28 30 31 31 30 32 36 38 42 47 51 50 58 58 63 56 59 56 56 61 60 54 52 50 56 60 71 81
49 37 35 34 32 34 34 36 35 45 38 34 30 28 29 29 28 29 28 29 32 34 36 37 38 40 51 55 61 62 66 74 67 66 64 65 58 60 55 53 61 66 64
34 38 36 36 36 36 36 35 35 34 34 35 36 36 34 36 34 32 35 37 36 36 37 36 36 38 40 49 52 46 60 100 80 87 61 62 62 62 61 65 63 65 63
34 37 35 34 35 36 36 36 36 36 37 42 42 45 44 41 40 42 44 45 44 45 46 42 43 42 40 39 42 62 90 100 84 100 67 62 65 55 57 64 58 51 55

GFSGL_sfc_rhum_117.txt.gz
RH
53 57 58 62 70 78 93 84 84 82 85 94 88 80 71 71 72 77 73 67 74 76 70 72 74 79 65 64 58 62 69 91 81 55 48 71 75 63 58 61 68 78 72
51 67 74 74 66 70 81 84 81 84 84 89 96 93 88 78 74 75 71 61 68 73 72 72 69 59 79 82 80 80 72 85 85 81 63 53 63 65 67 72 78 64 60
56 63 73 78 81 77 74 73 81 82 78 84 88 96 95 91 77 72 73 70 67 65 70 69 69 72 79 81 86 84 75 79 75 70 64 48 51 52 71 70 72 71 62
61 75 80 72 82 76 77 71 70 69 66 74 81 87 94 88 78 74 72 74 71 64 66 65 63 70 75 81 81 87 87 71 72 66 58 48 46 55 64 72 74 69 60
74 76 78 78 77 70 72 68 64 66 65 66 67 68 82 85 78 74 74 74 78 69 66 62 61 65 73 78 69 88 90 81 60 60 54 49 51 71 63 55 69 51 77
76 76 72 76 81 80 75 72 66 63 62 61 61 60 62 59 82 92 88 81 79 79 78 70 67 76 75 85 90 93 90 88 83 64 65 64 78 70 60 60 66 76 64
73 76 83 79 78 76 72 71 69 71 66 66 66 64 67 65 92 97 95 67 72 80 82 84 77 54 74 63 87 90 94 90 90 88 82 79 82 76 82 85 81 77 68
84 78 84 85 81 74 72 70 72 72 74 78 68 67 68 63 100 100 100 81 83 82 82 82 84 80 76 77 73 70 69 66 73 80 89 86 81 85 82 81 84 83 73
95 90 90 95 94 81 86 85 83 80 82 76 72 74 74 74 100 100 96 72 72 83 83 84 85 87 100 100 77 78 83 87 92 94 97 95 97 100 98 87 86 93 68
97 96 98 99 96 85 88 80 81 84 85 85 78 74 83 79 98 100 89 62 72 76 92 92 100 97 100 100 91 95 86 92 91 86 88 97 97 93 100 93 77 89 87
85 87 90 92 95 90 79 85 76 88 90 92 90 92 91 95 96 100 100 69 82 92 94 99 100 100 100 100 100 97 98 97 90 92 95 95 93 92 88 79 92 81 93
71 71 71 76 72 87 86 90 87 94 93 88 90 89 94 96 100 100 100 97 98 97 95 98 99 100 100 100 98 100 100 99 86 94 95 97 96 94 94 92 88 88 94
72 70 67 72 71 74 76 81 69 90 93 76 88 94 76 75 82 99 100 100 100 90 99 100 100 100 100 96 100 100 100 80 72 86 79 74 90 94 90 90 78 81 91
68 62 60 58 69 69 62 59 48 48 55 49 60 80 55 64 62 59 59 61 93 74 88 84 97 95 92 85 92 94 91 94 90 82 78 65 77 87 79 82 80 72 91
56 51 50 38 46 48 59 62 52 77 75 53 56 50 48 48 64 87 72 50 50 69 74 54 55 58 60 60 60 62 67 75 79 77 77 84 83 86 83 74 89 83 84
51 39 40 34 33 34 38 53 96 94 99 100 100 75 64 91 100 100 100 100 100 99 58 46 46 46 46 47 50 51 52 60 53 56 61 63 66 67 66 65 80 91 95
58 55 36 38 33 35 36 35 50 73 100 100 100 100 100 99 100 100 100 100 100 92 53 41 44 45 44 45 45 46 49 52 70 61 62 61 62 60 63 62 62 62 71
49 74 37 34 32 30 32 32 29 33 40 50 89 89 98 100 100 100 99 95 53 70 45 42 44 44 47 50 49 51 50 67 65 62 63 67 70 75 66 67 66 64 65
36 32 32 30 30 38 31 29 27 31 31 31 49 79 89 100 100 100 99 63 46 38 36 37 43 44 52 52 53 56 61 57 57 59 71 69 64 62 66 66 65 92 89
42 60 48 31 27 28 28 29 30 32 32 30 30 34 47 66 50 56 62 57 42 40 38 38 39 45 57 63 60 58 72 70 60 53 56 53 52 58 62 68 62 64 65
29 32 48 28 27 28 28 32 29 28 27 28 31 34 60 31 30 30 31 32 33 34 35 36 32 35 60 64 59 56 59 59 49 47 43 46 48 60 62 52 50 51 68
39 40 34 28 28 30 30 31 30 29 28 26 25 29 91 35 30 30 29 29 29 33 32 38 38 36 35 38 47 47 43 42 44 54 55 55 47 47 48 57 55 51 54
32 39 42 34 37 40 29 27 29 29 31 30 30 27 24 28 26 26 29 31 30 30 30 33 36 34 38 40 42 48 43 44 45 48 56 55 53 55 57 60 58 66 62
33 37 41 28 29 29 35 40 29 37 30 28 27 30 33 34 30 30 29 46 52 51 56 47 42 39 47 49 46 50 44 50 50 51 62 68 63 62 61 64 56 68 64
48 46 34 28 28 28 28 27 28 26 26 33 38 43 44 52 55 53 48 48 45 49 48 42 58 73 66 69 68 66 58 81 66 75 51 61 62 65 59 66 66 62 62
35 43 33 30 29 28 28 28 28 27 27 32 36 41 46 47 47 46 55 52 46 44 43 39 42 46 48 61 77 95 99 100 88 100 60 57 57 52 48 56 58 62 64

GFSGL_sfc_rhum_123.txt.gz
RH
71 81 86 84 88 92 94 95 95 93 92 91 78 83 85 88 90 92 91 92 94 93 93 92 93 88 88 93 90 88 95 97 90 85 86 85 86 89 79 84 85 85 91
71 89 90 91 85 84 92 95 95 96 94 93 88 87 97 98 98 96 89 94 91 94 92 92 91 86 91 93 95 93 80 81 83 86 96 95 92 90 87 89 86 81 91
88 91 92 90 91 86 93 92 93 95 96 96 96 93 98 99 99 99 96 87 87 93 92 92 90 93 88 85 93 84 87 85 94 96 95 98 94 94 92 93 93 94 90
92 93 94 92 91 82 84 90 92 95 94 96 97 98 98 98 98 96 92 93 84 83 91 92 90 91 85 85 86 87 90 92 97 96 98 96 96 91 94 94 97 98 96
95 95 95 93 93 91 90 92 94 94 92 92 95 98 97 93 92 84 81 90 89 86 92 91 89 88 88 84 81 84 91 91 96 97 98 98 96 97 94 94 94 93 96
95 94 93 94 93 92 92 93 95 95 94 93 92 98 92 88 91 91 90 90 87 90 92 92 93 86 86 93 90 84 88 94 95 94 95 95 95 96 94 94 92 95 93
95 91 90 92 94 94 94 94 96 96 95 95 93 95 96 95 96 95 91 94 95 97 95 92 86 84 89 84 92 94 94 93 88 95 95 94 95 96 93 92 94 96 96
88 87 88 93 94 94 93 95 96 96 95 94 93 93 95 98 96 94 92 92 95 94 93 93 93 88 90 92 90 96 96 98 98 98 94 93 95 96 95 94 93 93 95
89 95 95 92 94 93 96 97 97 97 96 96 95 96 95 94 100 100 98 97 96 96 93 94 93 93 92 99 94 98 98 98 100 100 100 100 100 100 96 96 95 95 96
90 95 94 93 97 95 98 96 97 98 97 96 95 95 100 94 99 100 100 99 98 99 97 98 100 98 100 100 98 96 97 97 99 100 99 99 99 98 100 94 95 96 97
90 94 92 94 97 98 97 95 95 98 97 99 99 99 99 100 99 100 100 96 98 97 98 100 100 100 100 100 100 98 98 99 99 97 98 97 97 97 98 98 97 96 97
88 90 90 89 91 98 98 97 95 98 99 99 99 99 99 99 100 100 100 100 100 97 97 100 100 100 100 100 100 100 100 100 99 99 98 98 98 97 97 98 98 98 97
93 86 84 86 86 97 98 99 100 99 98 99 99 99 99 99 99 100 100 100 100 100 100 100 100 100 100 100 100 100 100 99 99 99 98 98 97 91 94 95 95 94 94
89 89 81 78 81 93 83 80 78 79 93 96 99 97 81 78 93 98 99 99 100 99 99 100 100 100 100 100 99 99 100 99 98 98 97 97 97 96 96 96 97 97 97
85 86 64 70 75 84 94 99 91 97 95 75 82 82 78 81 89 99 89 89 96 92 97 96 98 98 98 98 98 99 99 99 99 98 98 98 96 96 96 96 97 97 98
80 66 59 59 60 77 87 88 99 100 100 100 92 78 94 97 100 99 98 99 100 99 85 92 95 96 97 97 96 91 96 93 95 92 93 91 95 93 93 90 95 96 97
85 66 64 59 52 65 62 82 76 92 100 100 100 100 96 100 100 100 100 100 100 93 88 79 77 78 73 71 70 76 91 89 87 88 92 93 93 88 83 94 95 94 87
60 69 61 68 58 58 56 64 82 82 74 82 96 99 100 100 100 100 100 98 86 87 84 77 80 81 76 83 85 85 94 91 87 86 88 79 76 81 84 89 92 81 85
59 56 58 62 64 56 60 58 59 65 77 82 78 88 100 100 100 100 100 94 92 87 72 72 73 81 84 86 89 89 89 94 92 93 93 94 93 93 91 91 92 91 92
69 65 62 61 60 54 56 56 59 59 57 84 85 84 94 96 88 86 91 92 94 93 74 66 78 80 83 82 89 92 89 90 93 94 94 95 94 93 91 88 90 91 93
57 57 65 52 52 54 52 62 57 60 56 52 57 80 88 80 72 69 76 81 79 78 70 65 79 85 90 92 90 90 90 89 92 93 87 82 83 85 77 78 77 86 90
64 64 60 56 62 60 57 59 53 53 56 59 64 68 76 76 78 75 72 70 70 68 71 76 76 80 92 94 93 88 80 88 87 87 93 87 80 85 84 81 88 85 89
65 60 59 53 57 57 50 50 58 49 63 66 66 66 64 63 63 73 72 70 69 69 70 78 84 83 85 91 90 90 88 94 94 95 97 92 90 91 92 93 92 92 93
62 56 53 55 45 42 44 50 51 51 51 56 64 68 76 75 76 74 74 75 72 66 62 71 83 88 87 81 84 84 88 95 88 89 96 98 98 97 95 94 94 93 94
49 47 51 51 46 44 42 43 44 52 48 57 66 69 71 77 81 82 85 85 80 76 70 66 75 79 82 86 85 91 96 99 94 96 91 95 95 94 91 88 87 86 91
38 46 44 42 46 43 46 43 42 44 47 49 50 52 55 55 78 85 88 84 84 82 78 77 72 80 82 86 94 99 100 100 96 100 96 93 91 90 94 96 92 86 87